Chignik, AK

9:55 PM AKST on February 20, 2017 (GMT -0900)
Chignik

Weather History for PAJC - November, 2012

Change the Weather History Date:

Friday, November 9, 2012

  Actual Average Record
Temperature  
Mean Temperature 48 °F -  
Max Temperature 53 °F 39 °F 53 °F (2012)
Min Temperature 42 °F 33 °F 26 °F (1996)
Degree Days  
Heating Degree Days 18    
Moisture  
Dew Point 40 °F    
Average Humidity 78    
Maximum Humidity 87    
Minimum Humidity 62    
Precipitation  
Precipitation 0.00 in - - ()
Sea Level Pressure  
Sea Level Pressure 29.37 in    
Wind  
Wind Speed 15 mph (SE)    
Max Wind Speed 22 mph    
Max Gust Speed 38 mph    
Visibility 8 miles    
Events      
Averages and records for this station are not official NWS values.
T = Trace of Precipitation, MM = Missing Value Source: NWS Daily Summary

Daily Weather History Graph

Daily Weather History Graph

Search for Another Location

Airport or City:

Trip Planner

Search our weather history database for the weather conditions in past years. The results will help you decide how hot, cold, wet, or windy it might be!

Date:

Astronomy

Nov. 09, 2012 Rise Set
Actual Time 9:00 AM AKST 5:33 PM AKST
Civil Twilight 8:18 AM AKST 6:15 PM AKST
Nautical Twilight 7:33 AM AKST 7:00 PM AKST
Astronomical Twilight 6:49 AM AKST 7:44 PM AKST
Moon 3:22 AM AKST (11/9) 3:35 PM AKST (11/9)
Length of Visible Light 9h 56m
Length of Day
8h 33m
Waning Crescent, 22% of the Moon is Illuminated
Nov 9
Waning Crescent
Nov 13
New
Nov 20
First Quarter
Nov 28
Full
Dec 6
Last Quarter

Hourly Weather History & Observations

Time (AKST) Temp. Windchill Dew Point Humidity Pressure Visibility Wind Dir Wind Speed Gust Speed Precip Events Conditions
12:16 AM 48.2 °F - 39.2 °F 71% 29.50 in 5.0 mi SSE 21.9 mph 35.7 mph N/A   Overcast
12:36 AM 48.2 °F - 39.2 °F 71% 29.51 in 5.0 mi South 16.1 mph 28.8 mph N/A   Overcast
12:56 AM 48.2 °F - 39.2 °F 71% 29.50 in 4.0 mi SSE 20.7 mph 36.8 mph N/A   Mostly Cloudy
1:16 AM 48.2 °F - 39.2 °F 71% 29.49 in 5.0 mi SE 13.8 mph 29.9 mph N/A   Overcast
1:36 AM 48.2 °F - 39.2 °F 71% 29.48 in 8.0 mi South 21.9 mph 34.5 mph N/A   Overcast
1:56 AM 48.2 °F - 39.2 °F 71% 29.43 in 8.0 mi SSE 21.9 mph 33.4 mph N/A   Overcast
2:16 AM 48.2 °F - 41.0 °F 76% 29.46 in 9.0 mi South 6.9 mph 24.2 mph N/A   Overcast
2:36 AM 50.0 °F - 41.0 °F 71% 29.45 in 10.0 mi South 18.4 mph 25.3 mph N/A   Overcast
2:56 AM 48.2 °F - 42.8 °F 82% 29.44 in 10.0 mi SSE 15.0 mph 28.8 mph N/A   Overcast
3:16 AM 50.0 °F - 42.8 °F 76% 29.44 in 10.0 mi South 19.6 mph 27.6 mph N/A   Overcast
3:36 AM 51.8 °F - 42.8 °F 71% 29.44 in 10.0 mi SSE 12.7 mph 19.6 mph N/A   Overcast
3:56 AM 50.0 °F - 42.8 °F 76% 29.42 in 10.0 mi SSE 13.8 mph 24.2 mph N/A   Overcast
4:16 AM 50.0 °F - 42.8 °F 76% 29.42 in 10.0 mi South 12.7 mph 19.6 mph N/A   Overcast
4:36 AM 48.2 °F - 41.0 °F 76% 29.42 in 10.0 mi South 12.7 mph 20.7 mph N/A   Overcast
4:56 AM 50.0 °F - 41.0 °F 71% 29.42 in 10.0 mi South 8.1 mph 20.7 mph N/A   Overcast
5:16 AM 50.0 °F - 42.8 °F 76% 29.40 in 10.0 mi South 15.0 mph 19.6 mph N/A   Overcast
5:36 AM 51.8 °F - 42.8 °F 71% 29.40 in 9.0 mi South 19.6 mph 38.0 mph N/A   Overcast
5:56 AM 51.8 °F - 42.8 °F 71% 29.39 in 8.0 mi South 18.4 mph 34.5 mph N/A   Overcast
6:16 AM 51.8 °F - 42.8 °F 71% 29.39 in 10.0 mi SE 9.2 mph 27.6 mph N/A   Overcast
6:36 AM 53.6 °F - 42.8 °F 67% 29.38 in 10.0 mi SW 6.9 mph - N/A   Overcast
6:56 AM 50.0 °F - 41.0 °F 71% 29.39 in 10.0 mi SSW 6.9 mph - N/A   Overcast
7:16 AM 53.6 °F - 42.8 °F 67% 29.37 in 10.0 mi South 19.6 mph 32.2 mph N/A   Overcast
7:36 AM 53.6 °F - 41.0 °F 62% 29.38 in 10.0 mi South 15.0 mph 38.0 mph N/A   Overcast
7:56 AM 53.6 °F - 41.0 °F 62% 29.38 in 10.0 mi SE 16.1 mph 24.2 mph N/A   Overcast
8:16 AM 51.8 °F - 41.0 °F 67% 29.38 in 10.0 mi SE 10.4 mph 28.8 mph N/A   Overcast
8:36 AM 48.2 °F - 41.0 °F 76% 29.39 in 10.0 mi SSE 9.2 mph 24.2 mph N/A   Overcast
8:56 AM 51.8 °F - 41.0 °F 67% 29.39 in 10.0 mi South 10.4 mph 18.4 mph N/A   Overcast
9:16 AM 46.4 °F 40.4 °F 41.0 °F 81% 29.39 in 10.0 mi SSE 13.8 mph 21.9 mph N/A   Overcast
9:36 AM 46.4 °F 40.7 °F 41.0 °F 81% 29.39 in 10.0 mi ESE 12.7 mph 18.4 mph N/A   Overcast
9:56 AM 46.4 °F 39.8 °F 39.2 °F 76% 29.39 in 10.0 mi SE 16.1 mph 19.6 mph N/A   Overcast
10:16 AM 46.4 °F 41.1 °F 39.2 °F 76% 29.39 in 10.0 mi South 11.5 mph 21.9 mph N/A   Overcast
10:36 AM 46.4 °F 40.7 °F 39.2 °F 76% 29.40 in 10.0 mi SE 12.7 mph 18.4 mph N/A   Overcast
10:56 AM 44.6 °F 37.4 °F 39.2 °F 81% 29.40 in 10.0 mi ESE 16.1 mph 25.3 mph N/A   Overcast
11:16 AM 44.6 °F 38.1 °F 39.2 °F 81% 29.40 in 10.0 mi ESE 13.8 mph 23.0 mph N/A   Overcast
11:36 AM 44.6 °F 36.6 °F 39.2 °F 81% 29.40 in 10.0 mi ESE 19.6 mph 25.3 mph N/A   Overcast
11:56 AM 44.6 °F 37.4 °F 39.2 °F 81% 29.40 in 9.0 mi SE 16.1 mph 21.9 mph N/A   Mostly Cloudy
12:16 PM 44.6 °F 37.4 °F 39.2 °F 81% 29.40 in 10.0 mi SE 16.1 mph 24.2 mph N/A   Mostly Cloudy
12:36 PM 44.6 °F 36.9 °F 39.2 °F 81% 29.39 in 10.0 mi ESE 18.4 mph 24.2 mph N/A   Overcast
12:56 PM 44.6 °F 37.4 °F 39.2 °F 81% 29.39 in 10.0 mi ESE 16.1 mph 21.9 mph N/A   Overcast
1:16 PM 44.6 °F 37.4 °F 39.2 °F 81% 29.39 in 10.0 mi SE 16.1 mph 23.0 mph N/A   Overcast
1:36 PM 44.6 °F 37.4 °F 39.2 °F 81% 29.37 in 10.0 mi ESE 16.1 mph 23.0 mph N/A   Overcast
1:56 PM 44.6 °F 37.8 °F 39.2 °F 81% 29.36 in 10.0 mi SE 15.0 mph 25.3 mph N/A   Overcast
2:16 PM 44.6 °F 37.2 °F 39.2 °F 81% 29.35 in 10.0 mi SE 17.3 mph 23.0 mph N/A   Mostly Cloudy
2:36 PM 44.6 °F 37.8 °F 39.2 °F 81% 29.34 in 10.0 mi ESE 15.0 mph 24.2 mph N/A   Overcast
3:16 PM 44.6 °F 37.8 °F 39.2 °F 81% 29.32 in 10.0 mi ESE 15.0 mph 24.2 mph N/A   Mostly Cloudy
3:36 PM 44.6 °F 38.4 °F 39.2 °F 81% 29.32 in 10.0 mi ESE 12.7 mph 23.0 mph N/A   Overcast
3:56 PM 44.6 °F 38.8 °F 39.2 °F 81% 29.33 in 10.0 mi ESE 11.5 mph 20.7 mph N/A   Overcast
4:16 PM 44.6 °F 37.8 °F 39.2 °F 81% 29.32 in 5.0 mi ESE 15.0 mph 20.7 mph N/A   Overcast
4:36 PM 44.6 °F 38.1 °F 39.2 °F 81% 29.33 in 9.0 mi ESE 13.8 mph 20.7 mph N/A   Overcast
4:56 PM 44.6 °F 39.7 °F 39.2 °F 81% 29.33 in 8.0 mi ESE 9.2 mph 16.1 mph N/A   Overcast
5:16 PM 44.6 °F 40.2 °F 39.2 °F 81% 29.33 in 3.0 mi ESE 8.1 mph - N/A   Overcast
5:36 PM 44.6 °F 40.2 °F 39.2 °F 81% 29.32 in 4.0 mi ESE 8.1 mph - N/A   Overcast
5:56 PM 44.6 °F 38.4 °F 39.2 °F 81% 29.31 in 5.0 mi East 12.7 mph - N/A   Overcast
6:16 PM 44.6 °F 39.2 °F 39.2 °F 81% 29.31 in 7.0 mi ESE 10.4 mph - N/A   Overcast
6:36 PM 44.6 °F 39.7 °F 39.2 °F 81% 29.31 in 7.0 mi East 9.2 mph - N/A   Overcast
6:56 PM 44.6 °F 39.7 °F 39.2 °F 81% 29.31 in 7.0 mi East 9.2 mph - N/A   Overcast
7:16 PM 44.6 °F 40.2 °F 39.2 °F 81% 29.31 in 8.0 mi East 8.1 mph - N/A   Overcast
7:36 PM 44.6 °F 39.7 °F 39.2 °F 81% 29.31 in 7.0 mi East 9.2 mph - N/A   Mostly Cloudy
7:56 PM 44.6 °F 39.7 °F 39.2 °F 81% 29.31 in 7.0 mi East 9.2 mph - N/A   Overcast
8:16 PM 44.6 °F 38.8 °F 39.2 °F 81% 29.31 in 9.0 mi East 11.5 mph - N/A   Overcast
8:36 PM 44.6 °F 39.7 °F 39.2 °F 81% 29.31 in 8.0 mi East 9.2 mph - N/A   Overcast
8:56 PM 44.6 °F 40.7 °F 39.2 °F 81% 29.30 in 7.0 mi East 6.9 mph - N/A   Overcast
9:16 PM 44.6 °F 40.7 °F 39.2 °F 81% 29.31 in 6.0 mi East 6.9 mph - N/A   Overcast
9:36 PM 44.6 °F 39.7 °F 39.2 °F 81% 29.31 in 5.0 mi ENE 9.2 mph - N/A   Overcast
9:56 PM 44.6 °F 40.7 °F 39.2 °F 81% 29.31 in 5.0 mi East 6.9 mph - N/A   Overcast
10:16 PM 44.6 °F 39.7 °F 39.2 °F 81% 29.32 in 4.0 mi ENE 9.2 mph - N/A   Overcast
10:36 PM 42.8 °F 37.5 °F 39.2 °F 87% 29.32 in 4.0 mi ENE 9.2 mph - N/A   Overcast
10:56 PM 42.8 °F 37.0 °F 39.2 °F 87% 29.32 in 2.5 mi ENE 10.4 mph - N/A   Overcast
11:16 PM 42.8 °F 37.5 °F 39.2 °F 87% 29.32 in 2.5 mi NE 9.2 mph - N/A   Overcast
11:36 PM 42.8 °F 36.6 °F 39.2 °F 87% 29.33 in 2.0 mi NE 11.5 mph - N/A   Overcast
11:56 PM 42.8 °F 36.6 °F 39.2 °F 87% 29.33 in 2.5 mi NE 11.5 mph - N/A   Overcast